Main page
METAR-TAF:

METAR-TAF

Airports :

Hamadan International Airport

Hamedan, Iran

latitude: 34-52-05N, longitude: 048-33-08E, elevation: 1757 m

Current weather observation

The report was made 35 minutes ago, at 22:00 UTC
Wind 6 kt from the East/Southeast
Temperature 20°C
Humidity 37%
Pressure 1013 hPa
Visibility: 6000 m

METAR: OIHH 052200Z 12006KT 6000 NSC 20/05 Q1012 A2990

Time: 03:05 (22:35 UTC)


TAF: missing

Weather observations and forecasts of more than 4000 airports (METAR and TAF reports).

The available stations are represented by yellow and red dots on the map.

Hover mouse over dot to see the name of the station.

Then click to see weather observations and forecasts.

To change the map : click on the green buttons with a black cross to zoom in, on the green button with a dash to zoom out, or on the green arrows for adjacent maps.


METAR-TAF: